Regional Weather Roundup
Issued by NWS Memphis, TN

Home | Current Version | Previous Version | Text Only | Print | Product List | Glossary On
Versions: 1 2 3 4 5 6 7 8 9 10 11 12 13 14 15 16 17 18 19 20 21 22 23 24 25 26 27 28 29 30 31 32 33 34 35 36 37 38 39 40 41 42 43 44 45 46 47 48 49 50
000
ASUS44 KMEG 231610
RWRMEG
MEMPHIS CWA HOURLY WEATHER ROUNDUP
NATIONAL WEATHER SERVICE MEMPHIS TN
1100 AM CDT TUE SEP 23 2014

...WEST TENNESSEE...

CITY           SKY/WX    TMP DP  RH WIND       PRES   REMARKS
MEMPHIS INTL   MOSUNNY   71  45  39 E12       30.25S
NWS MEMPHIS      N/A     68 N/A N/A MISG        N/A
JACKSON        SUNNY     70  50  49 E8        30.27R
LEXINGTON      SUNNY     66  52  59 NE7       30.26S
SAVANNAH       SUNNY     70  54  56 E6        30.25S
DYERSBURG      SUNNY     68  45  42 E6        30.29S
UNION CITY     SUNNY     66  50  55 NE7       30.29R
PARIS          SUNNY     64  45  48 NE9       30.29S
HUNTINGDON     SUNNY     66  46  48 E10       30.28S


...EASTERN ARKANSAS...

CITY           SKY/WX    TMP DP  RH WIND       PRES   REMARKS
JONESBORO      SUNNY     68  48  48 NE7       30.29R
WEST MEMPHIS   SUNNY     71  49  45 E7G20     30.25S
BATESVILLE     SUNNY     70  46  43 E9        30.30S
NEWPORT        SUNNY     69  50  50 VRB5      30.31R
WALNUT RIDGE   SUNNY     66  52  59 NE7       30.30S
BLYTHEVILLE    SUNNY     70  51  51 E6        30.29R
NW BLYTHEVILLE MOSUNNY   68  50  52 E7        30.29R
SEARCY           N/A    N/A N/A N/A MISG        N/A
STUTTGART      SUNNY     70  48  46 NE9       30.27S
PINE BLUFF     SUNNY     70  48  45 NE6       30.26S
MONTICELLO     SUNNY     73  49  42 NE6       30.23S


...NORTH MISSISSIPPI...

CITY           SKY/WX    TMP DP  RH WIND       PRES   REMARKS
TUPELO         SUNNY     69  52  54 E9        30.22S
OXFORD         SUNNY     68  52  56 NE6       30.24S
OLIVE BRANCH   MOSUNNY   66  48  52 NE9       30.25F
TUNICA         SUNNY     72  46  40 NE7       30.25S
CLARKSDALE     SUNNY     72  48  43 NE6       30.24S
CORINTH        SUNNY     70  52  52 CALM      30.23F
GRENADA        SUNNY     70  52  52 E6        30.22F
GREENWOOD      SUNNY     73  52  47 NE7       30.20S
COLUMBUS       SUNNY     72  54  54 VRB1      30.20S
STARKVILLE     FAIR      70  52  52 CALM      30.20S
GOLDEN TRIANGL SUNNY     70  52  52 E6        30.20S


...SOUTHEAST MISSOURI...

CITY           SKY/WX    TMP DP  RH WIND       PRES   REMARKS
WEST PLAINS    SUNNY     65  46  50 VRB6      30.33S
POPLAR BLUFF   SUNNY     67  48  50 VRB6      30.31R
CAPE GIRARDEAU SUNNY     67  51  56 CALM      30.32R


...NORTHWEST ALABAMA...

CITY           SKY/WX    TMP DP  RH WIND       PRES   REMARKS
MUSCLE SHOALS  SUNNY     70  52  52 NE5       30.25S


...MIDDLE TENNESSEE...

CITY           SKY/WX    TMP DP  RH WIND       PRES   REMARKS
NASHVILLE      MOSUNNY   69  50  50 E6        30.29S
CLARKSVILLE    SUNNY     68  49  50 E8        30.29F
DICKSON        SUNNY     64  48  55 E7        30.28R
COLUMBIA       SUNNY     70  54  56 VRB5      30.25S
LEWISBURG      SUNNY     67  53  60 NE5       30.26S


...WESTERN KENTUCKY...

CITY           SKY/WX    TMP DP  RH WIND       PRES   REMARKS
PADUCAH        SUNNY     70  48  45 NE8       30.30S
FORT CAMPBELL  SUNNY     69  49  48 E13       30.29F


...CENTRAL ARKANSAS...

CITY           SKY/WX    TMP DP  RH WIND       PRES   REMARKS
LITTLE ROCK    MOSUNNY   70  48  45 E5        30.27S


SKY/WX REPORTED AS FAIR MEANS FEW OR NO CLOUDS BELOW
12 THOUSAND FEET.




USA.gov is the U.S. government's official web portal to all federal, state and local government web resources and services.